Wind_Speed
115 112 111 110 108 109 106 113 102 109 114 119 114 110 109 109 103 92 82 72 67 62 57 57 58 61 56
109 106 108 108 108 107 93 104 111 109 118 121 114 110 106 103 89 82 73 68 64 58 55 55 56 53 49
107 110 113 103 114 107 114 114 113 115 123 113 111 107 104 91 80 73 67 64 58 55 54 54 52 50 46
115 114 116 114 115 120 121 120 122 120 109 110 106 102 86 79 71 67 63 59 55 53 55 52 49 45 45
113 115 118 118 120 118 118 113 109 108 106 103 95 84 77 70 64 61 57 53 52 54 51 49 46 46 48
111 113 114 113 111 109 109 108 104 104 102 88 81 75 67 61 58 54 51 51 53 51 48 45 47 47 50
108 108 108 109 107 107 105 104 101 90 83 77 71 64 60 55 51 48 48 52 51 48 45 46 47 50 54
105 104 103 104 103 99 93 88 83 78 72 67 62 57 52 47 46 46 50 49 48 46 47 49 50 53 57
99 96 93 91 88 85 81 76 71 69 63 59 56 50 44 43 43 47 50 48 46 47 49 50 53 56 59
88 86 85 82 78 74 70 66 63 60 56 53 48 42 39 42 45 49 48 48 49 50 51 52 55 58 61
80 77 74 70 66 64 62 59 55 52 51 46 42 39 39 43 46 48 49 49 51 52 52 54 56 59 62
71 67 64 60 57 55 54 52 49 48 45 41 38 37 41 43 46 48 50 50 52 53 54 56 57 60 61
58 57 55 53 53 50 49 48 45 42 40 36 37 39 41 43 46 47 47 49 51 54 55 56 57 59 61
48 46 48 47 46 45 45 42 43 39 38 37 38 41 43 45 46 47 47 47 52 54 55 56 55 58 60
44 43 44 43 41 41 40 41 41 38 37 38 41 43 45 47 48 50 50 52 53 55 56 57 53 57 60
40 39 39 39 37 37 39 39 40 38 40 40 42 45 48 49 51 51 54 56 57 59 58 59 54 54 59
38 38 37 37 38 39 41 39 40 42 43 43 45 48 50 52 54 54 57 61 61 62 60 58 57 55 58
Wind_Direction
288 292 292 297 297 298 299 300 305 301 306 308 308 309 308 310 311 310 310 308 309 307 307 308 309 312 309
289 292 292 293 293 297 299 295 298 298 304 306 305 305 308 308 308 308 305 307 304 305 306 310 309 310 310
289 287 291 288 291 293 294 295 296 297 298 302 303 305 304 306 303 303 304 303 304 306 308 309 309 309 309
285 287 288 289 290 291 293 295 295 299 299 300 301 304 303 301 302 301 301 301 303 305 308 306 309 309 310
283 285 286 288 289 291 291 293 294 297 299 299 300 300 300 299 299 299 299 300 303 306 304 305 305 308 312
284 285 285 288 289 289 291 293 295 295 296 297 297 298 297 295 296 297 298 301 304 304 302 302 304 309 312
282 283 284 285 288 289 291 291 292 294 293 296 296 295 292 293 294 296 300 303 303 301 299 301 306 311 313
282 282 282 284 285 287 288 289 290 291 291 292 291 289 291 293 294 299 303 303 300 298 298 302 307 310 312
281 282 282 283 285 285 286 287 288 288 288 288 286 288 290 291 295 300 304 300 298 297 298 303 307 309 311
281 280 281 282 282 283 283 284 284 285 285 283 283 286 288 292 296 302 302 299 297 297 299 304 307 309 312
279 279 279 279 279 279 280 281 282 280 279 279 283 285 289 294 299 304 301 298 297 298 301 304 307 309 312
276 276 275 275 275 275 276 276 275 276 275 276 281 285 291 297 303 303 300 298 297 299 300 303 306 309 313
274 274 273 272 272 272 271 272 272 271 274 276 280 286 292 295 303 302 302 302 302 303 303 303 305 308 313
272 271 270 269 269 267 268 266 270 271 272 275 282 287 290 294 299 301 304 306 308 309 308 305 307 309 314
271 268 267 268 266 266 266 266 267 265 268 275 282 287 291 293 297 299 302 304 307 309 308 306 307 310 315
268 267 267 267 267 266 264 263 261 263 268 274 281 288 290 291 296 299 304 305 305 310 309 308 308 312 315
266 263 263 261 262 260 259 259 262 265 266 275 280 285 289 290 297 302 303 305 305 309 309 309 308 312 315
Height
10646 10642 10634 10629 10625 10620 10614 10610 10601 10594 10591 10586 10581 10572 10564 10555 10545 10536 10530 10523 10517 10510 10504 10499 10493 10487 10482
10626 10622 10617 10611 10609 10601 10596 10593 10586 10582 10576 10568 10564 10556 10548 10539 10530 10522 10515 10510 10504 10497 10492 10486 10481 10475 10470
10607 10603 10599 10595 10587 10585 10581 10575 10570 10567 10561 10554 10546 10538 10530 10522 10514 10507 10501 10496 10490 10484 10479 10474 10469 10464 10459
10587 10582 10577 10574 10568 10563 10559 10554 10551 10546 10540 10533 10525 10518 10511 10505 10499 10493 10488 10482 10477 10471 10466 10461 10457 10453 10448
10567 10562 10555 10552 10545 10543 10535 10533 10530 10526 10520 10514 10508 10501 10494 10488 10484 10479 10474 10469 10463 10458 10453 10449 10446 10442 10437
10545 10541 10536 10530 10526 10520 10517 10513 10510 10506 10500 10494 10489 10484 10479 10474 10470 10465 10461 10456 10450 10445 10441 10438 10436 10431 10423
10523 10518 10513 10507 10502 10499 10497 10493 10488 10484 10479 10475 10471 10467 10463 10459 10457 10452 10448 10443 10437 10433 10430 10428 10423 10417 10410
10499 10495 10490 10485 10480 10479 10476 10472 10469 10465 10461 10458 10454 10452 10449 10446 10443 10440 10436 10430 10425 10421 10418 10415 10410 10403 10396
10474 10470 10466 10461 10460 10458 10455 10452 10450 10447 10444 10442 10440 10437 10435 10434 10431 10428 10423 10417 10413 10409 10406 10402 10397 10390 10381
10448 10445 10443 10441 10440 10438 10435 10434 10433 10430 10430 10428 10426 10424 10423 10422 10419 10415 10410 10405 10401 10397 10394 10389 10383 10375 10367
10425 10423 10422 10421 10421 10419 10418 10418 10417 10416 10416 10414 10413 10412 10411 10410 10407 10403 10397 10393 10388 10384 10380 10375 10369 10361 10352
10403 10402 10402 10403 10402 10402 10402 10403 10403 10402 10402 10401 10401 10400 10399 10396 10394 10390 10385 10381 10376 10371 10367 10362 10356 10347 10339
10383 10384 10384 10385 10386 10388 10388 10390 10390 10390 10389 10390 10389 10389 10387 10385 10382 10378 10374 10368 10362 10357 10353 10348 10342 10333 10324
10368 10369 10369 10371 10373 10374 10375 10376 10377 10378 10378 10378 10377 10376 10374 10373 10370 10367 10362 10357 10349 10343 10338 10333 10328 10318 10310
10355 10356 10357 10358 10360 10362 10364 10365 10365 10366 10366 10365 10364 10363 10361 10359 10357 10354 10350 10345 10339 10333 10325 10318 10316 10305 10296
10343 10344 10345 10347 10349 10350 10351 10352 10353 10353 10353 10353 10352 10350 10348 10346 10343 10341 10336 10329 10324 10318 10311 10302 10298 10294 10283
10331 10333 10334 10336 10338 10338 10339 10340 10341 10341 10340 10340 10338 10336 10333 10332 10328 10327 10322 10315 10309 10303 10297 10289 10280 10278 10270